Date String (YYYY-MM-DD hh:mm:ss) UTC,Instrument flags,absolute air pressure of the measurement (hPa),sample flow rate (lpm),inlet stack bypass flow (lpm),air temperature of the measurement (°C),ambient temperature measured by the external sensor (°C),aerosol sample conditioner tube jacket temperature (°C),OPC LED temperature (°C),internal box temperature (°C),relative humidity of the measurement (%),span deviation,mass concentration of particles derived from Lorenz-Mie calculation of OPC scattering (μg/m³),mass concentration of particles derived from Lorenz-Mie calculation of OPC scattering (μg/m³),mass concentration of particles derived from Lorenz-Mie calculation of OPC scattering (μg/m³)
DateTimeUTC,F1_M11,P_M11,Q1_M11,Q2_M11,T1_M11,T2_M11,T3_M11,T4_M11,T5_M11,U1_M11,ZSPAN_M11,X0_M11,X2_M11,X1_M11
2024-03-12 02:00:00,SystemResetWarning,0823.9,5.01,000.00,023.8,023.0,000.0,032.4,025.6,08.9,0000.0,0019.19,0004.72,0002.30
2024-03-12 02:01:00,SystemResetWarning,0823.9,5.00,000.00,023.8,023.0,000.0,032.4,025.6,08.9,0000.0,0018.63,0004.72,0002.32
2024-03-12 02:02:00,SystemResetWarning,0824.0,4.99,000.00,023.8,023.0,000.0,032.3,025.6,08.7,0000.0,0019.69,0004.71,0002.35
2024-03-12 02:03:00,SystemResetWarning,0824.0,5.00,000.00,023.8,023.0,000.0,032.3,025.6,08.6,0000.0,0019.67,0004.74,0002.37
2024-03-12 02:04:00,SystemResetWarning,0823.9,5.00,000.00,023.8,023.0,000.0,032.3,025.6,08.8,0000.0,0018.83,0004.78,0002.37
2024-03-12 02:05:00,SystemResetWarning,0824.0,4.99,000.00,023.8,023.0,000.0,032.3,025.6,08.4,0000.0,0019.47,0004.83,0002.39
2024-03-12 02:06:00,SystemResetWarning,0824.0,5.01,000.00,023.8,023.0,000.0,032.3,025.6,08.0,0000.0,0020.26,0004.92,0002.42
2024-03-12 02:07:00,SystemResetWarning,0824.0,5.01,000.00,023.8,023.0,000.0,032.3,025.6,07.9,0000.0,0020.04,0004.93,0002.41
2024-03-12 02:08:00,SystemResetWarning,0824.0,4.99,000.00,023.8,023.0,000.0,032.3,025.5,07.9,0000.0,0018.80,0004.90,0002.42
2024-03-12 02:09:00,SystemResetWarning,0823.9,5.00,000.00,023.8,023.0,000.0,032.3,025.5,08.1,0000.0,0019.20,0004.91,0002.42
2024-03-12 02:10:00,SystemResetWarning,0824.0,5.00,000.00,023.8,023.0,000.0,032.3,025.5,08.0,0000.0,0019.29,0004.90,0002.42
2024-03-12 02:11:00,SystemResetWarning,0824.0,5.00,000.00,023.8,023.0,000.0,032.3,025.5,07.8,0000.0,0019.18,0004.85,0002.42
2024-03-12 02:12:00,SystemResetWarning,0824.0,4.99,000.00,023.7,023.0,000.0,032.3,025.5,07.9,0000.0,0019.29,0004.84,0002.40
2024-03-12 02:13:00,SystemResetWarning,0823.9,5.00,000.00,023.7,023.0,000.0,032.3,025.5,08.1,0000.0,0018.31,0004.85,0002.40
2024-03-12 02:14:00,SystemResetWarning,0824.0,5.00,000.00,023.7,023.0,000.0,032.3,025.5,07.7,0000.0,0018.74,0004.86,0002.38
2024-03-12 02:15:00,SystemResetWarning,0824.0,5.01,000.00,023.7,022.9,000.0,032.3,025.5,07.5,0000.0,0018.82,0004.86,0002.39
2024-03-12 02:16:00,SystemResetWarning,0824.0,5.00,000.00,023.7,022.9,000.0,032.3,025.5,07.6,0000.0,0018.42,0004.82,0002.38
2024-03-12 02:17:00,SystemResetWarning,0824.0,4.98,000.00,023.7,022.9,000.0,032.3,025.5,07.6,0000.0,0017.67,0004.78,0002.38
2024-03-12 02:18:00,SystemResetWarning,0824.0,5.00,000.00,023.7,023.0,000.0,032.3,025.5,07.4,0000.0,0017.42,0004.80,0002.39
2024-03-12 02:19:00,SystemResetWarning,0824.0,5.02,000.00,023.7,022.9,000.0,032.3,025.5,07.3,0000.0,0016.90,0004.87,0002.40
2024-03-12 02:20:00,SystemResetWarning,0823.9,5.00,000.00,023.7,022.9,000.0,032.3,025.5,07.4,0000.0,0016.43,0004.84,0002.41
2024-03-12 02:21:00,SystemResetWarning,0824.0,4.98,000.00,023.7,022.9,000.0,032.3,025.5,07.8,0000.0,0016.12,0004.85,0002.43
2024-03-12 02:22:00,SystemResetWarning,0823.9,5.00,000.00,023.7,022.9,000.0,032.3,025.5,07.8,0000.0,0016.39,0004.88,0002.47
2024-03-12 02:23:00,SystemResetWarning,0824.0,5.00,000.00,023.7,022.9,000.0,032.3,025.5,07.5,0000.0,0017.30,0004.91,0002.50
2024-03-12 02:24:00,SystemResetWarning,0824.0,5.00,000.00,023.7,022.9,000.0,032.3,025.5,07.7,0000.0,0017.43,0004.86,0002.48
2024-03-12 02:25:00,SystemResetWarning,0824.0,5.01,000.00,023.7,022.9,000.0,032.3,025.5,07.4,0000.0,0016.53,0004.81,0002.46
2024-03-12 02:26:00,SystemResetWarning,0824.0,5.00,000.00,023.7,022.9,000.0,032.3,025.5,07.4,0000.0,0016.46,0004.76,0002.46
2024-03-12 02:27:00,SystemResetWarning,0824.0,5.01,000.00,023.7,022.9,000.0,032.3,025.5,07.4,0000.0,0016.24,0004.73,0002.47
2024-03-12 02:28:00,SystemResetWarning,0824.0,5.01,000.00,023.7,022.9,000.0,032.2,025.5,07.4,0000.0,0016.59,0004.73,0002.45
2024-03-12 02:29:00,SystemResetWarning,0824.0,5.00,000.00,023.7,022.9,000.0,032.2,025.5,07.6,0000.0,0016.69,0004.71,0002.44
2024-03-12 02:30:00,SystemResetWarning,0824.0,5.00,000.00,023.7,022.9,000.0,032.2,025.5,07.7,0000.0,0016.98,0004.67,0002.46
2024-03-12 02:31:00,SystemResetWarning,0824.0,5.00,000.00,023.7,022.9,000.0,032.2,025.5,07.9,0000.0,0016.65,0004.64,0002.47
2024-03-12 02:32:00,SystemResetWarning,0824.0,5.00,000.00,023.7,022.9,000.0,032.2,025.5,08.0,0000.0,0016.73,0004.57,0002.47
2024-03-12 02:33:00,SystemResetWarning,0824.0,5.00,000.00,023.7,022.9,000.0,032.2,025.5,08.0,0000.0,0016.84,0004.55,0002.43
2024-03-12 02:34:00,SystemResetWarning,0824.0,5.00,000.00,023.7,022.9,000.0,032.2,025.5,07.9,0000.0,0015.99,0004.53,0002.42
2024-03-12 02:35:00,SystemResetWarning,0824.0,5.01,000.00,023.6,022.9,000.0,032.2,025.5,07.8,0000.0,0016.05,0004.58,0002.44
2024-03-12 02:36:00,SystemResetWarning,0824.0,5.01,000.00,023.6,022.8,000.0,032.2,025.5,07.9,0000.0,0016.44,0004.59,0002.44
2024-03-12 02:37:00,SystemResetWarning,0824.0,5.00,000.00,023.6,022.8,000.0,032.2,025.5,08.0,0000.0,0017.80,0004.61,0002.44
2024-03-12 02:38:00,SystemResetWarning,0824.0,4.99,000.00,023.6,022.8,000.0,032.2,025.5,08.0,0000.0,0017.47,0004.61,0002.40
2024-03-12 02:39:00,SystemResetWarning,0824.0,5.00,000.00,023.6,022.8,000.0,032.2,025.5,08.0,0000.0,0017.11,0004.61,0002.41
2024-03-12 02:40:00,SystemResetWarning,0824.0,5.00,000.00,023.6,022.8,000.0,032.2,025.4,08.1,0000.0,0016.54,0004.57,0002.41
2024-03-12 02:41:00,SystemResetWarning,0824.0,5.00,000.00,023.6,022.8,000.0,032.2,025.4,08.2,0000.0,0016.98,0004.59,0002.39
2024-03-12 02:42:00,SystemResetWarning,0824.0,5.01,000.00,023.6,022.8,000.0,032.2,025.4,08.2,0000.0,0017.71,0004.67,0002.39
2024-03-12 02:43:00,SystemResetWarning,0824.0,5.00,000.00,023.6,022.8,000.0,032.2,025.4,08.2,0000.0,0017.89,0004.76,0002.40
2024-03-12 02:44:00,SystemResetWarning,0824.1,5.00,000.00,023.6,022.8,000.0,032.2,025.4,08.4,0000.0,0017.39,0004.81,0002.41
2024-03-12 02:45:00,SystemResetWarning,0824.2,5.00,000.00,023.6,022.8,000.0,032.2,025.4,08.3,0000.0,0016.90,0004.86,0002.44
2024-03-12 02:46:00,SystemResetWarning,0824.2,5.00,000.00,023.6,022.8,000.0,032.2,025.4,08.3,0000.0,0016.83,0004.87,0002.44
2024-03-12 02:47:00,SystemResetWarning,0824.1,5.00,000.00,023.6,022.8,000.0,032.1,025.4,08.4,0000.0,0017.27,0004.95,0002.46
2024-03-12 02:48:00,SystemResetWarning,0824.1,4.99,000.00,023.6,022.8,000.0,032.1,025.4,08.1,0000.0,0015.92,0005.02,0002.48
2024-03-12 02:49:00,SystemResetWarning,0824.1,5.00,000.00,023.5,022.7,000.0,032.1,025.4,08.1,0000.0,0016.58,0005.04,0002.53
2024-03-12 02:50:00,SystemResetWarning,0824.1,5.00,000.00,023.5,022.7,000.0,032.1,025.4,08.3,0000.0,0017.36,0005.04,0002.56
2024-03-12 02:51:00,SystemResetWarning,0824.1,5.00,000.00,023.5,022.7,000.0,032.1,025.4,08.2,0000.0,0017.34,0005.07,0002.58
2024-03-12 02:52:00,SystemResetWarning,0824.2,5.00,000.00,023.5,022.7,000.0,032.1,025.3,08.1,0000.0,0017.34,0005.04,0002.60
2024-03-12 02:53:00,SystemResetWarning,0824.2,5.01,000.00,023.5,022.7,000.0,032.1,025.3,08.2,0000.0,0016.51,0005.02,0002.62
2024-03-12 02:54:00,SystemResetWarning,0824.2,5.00,000.00,023.5,022.7,000.0,032.1,025.4,08.6,0000.0,0016.82,0005.13,0002.66
2024-03-12 02:55:00,SystemResetWarning,0824.2,5.00,000.00,023.5,022.7,000.0,032.1,025.3,08.7,0000.0,0016.80,0005.16,0002.69
2024-03-12 02:56:00,SystemResetWarning,0824.2,5.00,000.00,023.5,022.7,000.0,032.1,025.3,08.8,0000.0,0016.65,0005.15,0002.68
2024-03-12 02:57:00,SystemResetWarning,0824.3,4.99,000.00,023.5,022.7,000.0,032.1,025.3,08.2,0000.0,0016.10,0005.11,0002.70
2024-03-12 02:58:00,SystemResetWarning,0824.3,5.00,000.00,023.5,022.7,000.0,032.1,025.3,08.5,0000.0,0015.83,0005.11,0002.73
2024-03-12 02:59:00,SystemResetWarning,0824.3,5.00,000.00,023.5,022.6,000.0,032.1,025.3,08.2,0000.0,0015.99,0005.05,0002.74
